Temperature
22 22 22 22 19 17 19 20 20 21 21 21 21 20 19 18 18 18 18 18 18 18 18 18 18 18 18 18 18 18 18 18 18 18 18 18 18 18 18 18 18 18 18 18 18 18 18 18 18
22 22 22 21 17 17 19 20 20 21 21 21 21 20 19 19 18 18 18 18 18 18 18 18 18 18 18 18 18 18 18 18 18 18 18 18 18 18 18 17 18 18 18 18 18 18 17 17 17
23 22 22 18 18 18 19 20 20 22 22 22 21 20 19 19 19 18 18 18 18 18 18 18 18 18 18 18 18 17 17 18 18 18 18 17 17 17 17 17 17 18 18 17 17 17 17 17 17
23 22 21 18 19 20 20 20 21 21 22 21 20 19 19 19 19 19 19 19 19 18 18 18 18 18 18 18 18 17 17 17 17 17 17 17 17 17 17 17 17 17 17 17 17 17 17 17 17
23 22 18 18 19 20 20 21 22 21 21 21 20 19 19 19 19 19 19 19 19 18 18 18 18 18 18 18 17 17 17 17 17 17 17 17 17 17 17 17 17 17 17 17 17 17 17 17 17
23 19 18 18 20 21 21 22 22 21 21 20 20 19 19 19 19 19 19 19 19 18 18 18 18 18 18 17 17 17 17 17 17 17 17 17 17 17 17 17 17 17 17 17 17 17 17 17 17
21 17 18 19 20 21 21 22 21 20 21 21 20 18 19 19 19 19 19 19 18 18 18 18 18 18 18 17 17 17 17 17 17 17 17 17 17 17 17 17 17 17 17 17 17 17 16 16 16
22 17 19 19 19 20 22 22 22 22 21 21 21 19 19 19 19 19 19 18 18 18 18 18 18 18 17 17 17 17 17 17 17 17 17 17 17 17 17 17 17 17 17 16 16 16 16 16 16
23 17 18 19 20 20 22 22 22 22 21 21 21 20 20 19 19 19 19 18 18 18 18 18 18 17 17 17 17 17 17 17 17 17 17 17 17 16 16 16 16 16 16 16 16 16 16 16 16
21 17 20 20 20 20 21 21 22 21 21 20 20 20 20 19 19 19 19 18 18 18 18 18 18 17 17 17 17 17 17 17 17 17 17 16 16 16 16 16 16 16 16 16 16 16 16 16 16
21 19 20 21 22 22 22 22 22 21 19 20 20 20 20 19 19 19 19 18 18 18 18 18 17 17 17 17 17 17 17 17 17 17 16 16 16 16 16 16 16 16 16 16 16 16 16 16 16
21 21 22 22 22 22 22 22 21 21 21 21 21 20 20 19 19 19 19 19 18 18 18 18 17 17 17 17 17 17 17 16 16 16 16 16 16 16 16 16 16 16 16 16 16 16 16 16 16
21 21 22 23 22 22 22 21 21 21 22 21 21 20 20 20 19 19 19 19 19 18 18 18 18 17 17 17 17 17 17 17 16 16 16 16 16 16 16 16 16 16 16 16 16 16 15 15 15
22 22 22 22 22 22 21 21 21 21 21 21 21 20 20 20 20 19 19 19 19 18 18 18 18 17 17 17 17 17 17 17 16 16 16 16 16 16 16 16 16 16 16 15 15 15 15 15 15
22 21 21 21 22 22 21 20 20 21 21 21 21 21 20 20 20 19 19 19 19 19 18 18 18 17 17 17 17 17 17 17 16 16 16 16 16 16 16 16 16 16 15 15 15 15 15 15 15
21 20 19 20 21 21 21 19 20 21 21 20 20 20 20 20 20 20 19 19 19 19 18 18 18 17 17 17 17 17 17 16 16 16 16 16 16 16 16 16 15 15 15 15 15 15 15 15 15
19 19 19 20 21 21 20 19 19 21 21 20 20 20 20 20 19 19 19 19 19 19 18 18 18 17 17 17 17 17 17 16 16 16 16 16 16 16 16 15 15 15 15 15 15 15 15 15 15
19 19 20 20 20 20 19 19 19 20 20 20 19 19 19 19 19 19 19 19 19 19 18 18 18 17 17 17 17 17 16 16 16 16 16 16 15 15 15 15 15 15 15 15 15 15 15 15 15
20 20 20 20 20 20 19 18 18 19 19 19 19 19 19 19 19 19 19 19 19 18 18 18 18 17 17 17 17 16 16 16 16 16 16 15 15 15 15 15 15 15 15 15 15 15 15 15 14
20 19 19 20 20 20 18 18 18 18 19 19 18 18 19 19 19 19 19 19 19 18 18 18 18 18 17 17 17 16 16 16 16 16 16 15 15 15 15 15 15 15 15 15 15 15 14 14 14
20 19 19 19 20 19 19 17 17 18 19 19 18 19 19 18 18 18 18 18 18 18 18 18 18 17 17 17 17 16 16 16 16 16 15 15 15 15 15 15 15 15 15 15 15 14 14 14 14
19 20 20 20 18 17 18 16 17 17 17 17 17 18 18 18 18 18 18 18 18 18 18 17 17 17 17 17 17 16 16 16 15 15 15 15 15 15 15 15 15 15 14 14 14 14 14 14 14
20 21 20 20 18 17 17 16 16 16 16 16 17 17 18 18 18 18 18 18 17 17 17 17 17 17 17 17 16 16 16 16 15 15 15 15 15 15 15 15 14 14 14 14 14 14 14 14 14
20 19 18 16 16 17 17 16 16 15 16 16 16 17 17 17 18 18 18 17 17 17 17 17 17 17 17 16 16 16 16 15 15 15 15 15 15 15 14 14 14 14 14 14 14 14 14 14 14
19 16 16 16 15 16 17 16 16 16 17 17 16 17 17 17 17 17 17 17 17 17 17 17 17 17 16 16 16 16 16 15 15 15 15 15 15 14 14 14 14 14 14 14 14 13 13 13 13
19 17 16 16 16 16 17 16 16 17 17 18 17 17 17 17 17 17 17 17 17 17 17 17 16 16 16 16 16 15 15 15 15 15 15 14 14 14 14 14 14 14 13 13 13 13 13 13 13
19 17 16 15 16 16 16 16 17 17 16 16 16 16 16 16 17 16 17 17 17 17 17 16 16 16 16 16 15 15 15 15 15 14 14 14 14 14 14 13 13 13 13 13 13 13 13 13 13
19 17 15 16 16 15 16 16 15 16 16 16 15 16 16 16 16 16 16 16 16 16 16 16 16 15 15 15 15 15 15 15 14 14 14 14 14 14 13 13 13 13 13 13 13 13 13 12 12
19 18 16 14 14 15 15 15 16 16 16 15 15 16 16 16 16 16 16 16 16 15 15 15 15 15 15 15 15 14 14 14 14 14 14 13 13 13 13 13 12 13 13 12 12 12 12 12 12
18 18 16 15 15 14 13 14 16 16 16 16 16 16 16 16 16 16 15 15 15 15 15 15 15 15 14 14 14 14 14 13 13 13 13 13 13 13 12 12 12 12 12 12 12 12 12 12 12
Wind_Speed
5 3 3 4 6 6 4 2 2 4 5 6 9 10 8 6 5 4 2 6 7 5 4 5 8 9 9 10 9 9 9 10 11 12 12 12 12 12 12 12 12 12 12 12 12 11 11 12 11
3 1 4 5 6 5 3 1 5 5 5 7 9 8 7 6 3 5 3 6 7 6 5 6 8 9 10 9 10 9 9 10 11 11 12 12 12 12 12 12 12 12 12 12 11 11 11 12 12
1 2 4 5 5 5 4 1 5 4 5 5 5 6 5 4 3 3 5 8 7 6 5 7 8 9 9 10 10 10 10 10 11 11 12 12 12 12 12 12 12 11 11 11 11 11 11 12 12
3 5 5 6 6 3 6 4 5 5 5 6 6 6 4 3 3 5 8 9 8 5 5 7 9 9 9 9 10 10 10 10 11 11 12 12 12 12 12 12 12 11 11 11 11 11 11 11 11
4 5 7 5 4 2 4 5 6 6 4 5 7 6 3 2 5 7 8 9 8 5 5 7 8 9 9 9 9 9 10 11 11 11 11 11 11 12 12 12 11 12 12 12 12 11 11 11 11
5 5 6 4 3 2 2 5 8 9 7 7 7 6 2 1 5 6 7 7 8 7 5 7 8 8 8 9 10 10 10 11 11 11 11 11 11 11 11 11 11 11 11 12 12 12 12 12 11
5 5 4 4 4 4 3 4 7 7 6 5 6 6 2 1 4 5 7 7 6 6 5 4 6 6 7 8 9 9 10 10 10 10 10 9 9 10 10 10 10 10 11 11 11 12 13 14 14
6 5 4 3 5 3 1 3 5 7 5 5 6 7 4 5 4 7 7 6 6 5 5 4 4 5 5 5 7 8 8 8 9 9 9 8 8 8 8 9 9 9 10 10 11 11 12 13 14
5 6 4 2 4 3 3 5 3 4 5 4 4 6 7 8 7 8 6 5 4 5 3 4 3 4 4 4 5 6 7 6 6 6 7 6 5 5 5 7 8 9 9 9 10 10 11 12 13
5 4 3 3 4 4 4 5 3 5 6 4 5 5 8 8 8 7 6 5 4 4 3 3 4 4 3 4 4 4 5 5 5 5 5 5 4 4 5 5 7 8 8 8 9 10 10 10 9
4 5 3 3 4 5 4 3 3 6 4 4 8 9 8 8 7 7 6 5 5 4 4 3 4 4 3 2 3 3 3 3 4 4 5 5 5 4 4 4 5 5 6 6 7 8 7 7 6
4 3 4 4 4 4 4 3 4 4 5 6 9 11 9 8 7 7 6 5 5 5 5 4 5 4 3 3 2 3 2 3 3 3 5 5 3 3 2 2 3 3 4 4 4 4 5 6 6
5 3 3 4 5 4 5 4 4 3 4 6 8 9 9 8 7 6 6 6 6 6 5 5 5 5 4 3 2 3 2 2 3 4 4 5 3 2 2 2 2 3 4 3 3 3 4 4 5
4 4 3 3 4 3 5 2 3 3 5 6 8 8 7 8 7 6 5 6 6 6 5 5 6 5 5 4 3 2 3 3 4 4 4 5 5 3 2 2 2 2 3 3 3 4 3 3 4
4 5 3 1 2 2 5 3 2 6 7 8 7 7 7 5 6 6 7 7 7 6 5 6 6 5 5 4 3 3 3 4 4 3 4 5 4 4 3 2 2 2 4 5 5 5 4 4 4
4 3 1 3 2 2 5 2 5 3 9 8 6 6 6 4 4 5 6 6 6 6 6 5 6 5 4 4 3 2 3 4 3 4 4 4 4 5 4 2 2 2 4 3 3 3 4 4 3
2 1 2 2 1 2 4 3 4 2 7 7 5 5 5 3 2 3 4 6 6 6 6 5 6 5 4 4 3 3 3 3 3 4 4 4 5 5 4 2 2 3 3 2 2 3 2 3 3
3 2 2 2 2 2 2 3 3 2 5 6 5 4 4 4 3 3 4 5 5 6 6 5 5 4 4 3 3 2 3 2 3 3 4 5 5 5 4 2 2 3 2 2 2 3 2 2 2
4 3 2 3 3 2 2 2 3 3 2 3 4 5 5 4 2 3 4 5 5 5 5 5 5 4 3 2 2 2 1 1 1 2 3 4 5 5 4 2 2 2 2 2 2 2 3 2 2
3 2 0 2 1 2 2 1 3 1 2 4 6 6 6 4 2 2 3 4 5 5 4 4 4 4 4 3 2 2 2 1 1 1 2 3 3 4 4 3 2 2 3 3 2 2 2 1 2
2 3 2 2 2 2 2 3 3 3 0 2 3 4 5 6 6 4 4 3 4 4 4 4 3 3 4 4 3 2 2 2 2 2 1 2 3 3 3 3 3 2 2 2 1 2 3 1 1
2 3 3 2 1 2 1 2 6 3 2 1 2 2 3 4 4 4 5 4 4 4 4 3 4 3 3 4 4 4 3 2 1 1 1 2 2 3 3 3 3 2 2 2 1 2 2 3 1
4 3 2 1 1 1 1 2 6 2 2 4 3 4 4 4 5 4 5 5 4 4 4 3 3 3 3 4 5 4 3 2 1 1 1 1 2 2 3 3 3 2 2 2 2 2 2 2 2
2 4 5 5 4 2 4 4 4 3 6 4 3 4 4 4 3 3 4 4 3 3 3 3 3 3 3 4 4 5 4 3 3 2 1 0 0 1 2 2 2 2 1 1 2 2 2 1 2
5 6 4 4 3 5 2 3 5 5 4 7 7 6 4 4 4 3 3 4 3 3 3 3 3 2 2 3 4 4 5 4 4 3 2 1 0 0 1 0 1 1 1 1 2 2 1 1 2
2 7 6 3 4 5 3 2 4 3 1 4 5 5 4 4 4 4 4 4 4 4 3 3 3 2 2 3 3 3 3 3 3 3 3 3 2 2 2 1 1 1 1 1 2 1 0 1 1
3 3 6 5 1 2 3 3 3 4 3 3 4 4 4 4 4 4 3 3 3 3 3 3 3 1 1 2 2 2 2 3 3 2 2 2 2 1 1 1 1 1 1 1 2 1 1 1 0
4 5 5 3 1 3 4 3 3 2 2 2 3 3 4 4 4 3 3 3 3 3 3 3 3 2 1 1 1 2 2 2 3 2 2 2 2 1 1 2 2 1 1 1 2 1 1 1 0
1 2 3 3 4 4 3 5 4 6 5 5 5 5 4 4 5 4 3 2 2 2 2 2 2 2 2 1 1 1 0 1 2 2 2 2 2 2 2 2 2 2 2 2 2 2 1 1 0
4 4 5 4 3 4 3 6 5 4 4 5 4 3 2 3 4 4 3 2 2 1 2 2 2 2 2 2 2 1 0 0 1 2 2 2 2 2 2 2 2 2 2 2 2 3 2 2 2
Wind_Direction
341 356 80 58 55 58 65 30 103 67 50 56 75 84 86 74 95 131 203 139 131 127 116 100 91 83 78 76 77 77 79 80 81 81 81 79 77 75 73 71 71 70 70 69 68 65 64 62 60
347 33 60 58 79 78 47 52 82 93 130 117 84 79 77 69 87 114 122 138 129 123 117 106 95 87 81 77 78 80 84 85 85 85 85 82 79 76 75 73 71 69 67 67 66 64 63 62 62
340 74 73 66 88 123 136 160 114 93 103 95 79 59 76 102 103 129 154 140 123 117 116 112 101 93 87 82 80 81 84 88 87 86 88 84 81 77 75 72 72 70 68 65 64 63 62 61 63
65 45 56 73 88 130 143 160 137 102 63 65 94 69 55 79 126 144 142 134 122 119 120 118 109 101 94 88 81 81 86 91 92 90 90 86 83 80 76 72 72 71 70 66 62 61 61 61 63
62 68 65 68 81 111 131 130 111 96 83 79 90 92 64 19 108 126 133 132 130 130 128 125 116 108 100 93 85 83 91 97 95 96 93 89 85 81 77 74 73 70 68 65 61 60 58 58 61
55 65 83 92 96 91 98 108 97 89 97 101 98 105 115 117 114 127 129 129 134 136 135 126 121 115 106 97 89 85 93 99 98 97 95 91 86 82 78 75 73 71 70 67 64 61 57 55 59
93 81 105 124 102 84 112 105 103 109 105 118 125 105 129 168 144 133 120 123 123 128 121 118 126 118 111 102 97 94 96 98 101 98 96 92 90 85 79 75 72 71 70 67 63 60 59 59 61
115 93 79 88 100 89 86 90 115 114 116 129 117 127 164 200 151 118 106 105 111 118 121 122 131 126 121 112 102 101 101 99 98 99 100 94 87 81 76 72 69 69 68 65 62 59 61 63 65
79 78 96 129 126 125 98 88 75 90 93 75 96 148 167 158 127 106 95 88 106 118 127 128 131 133 130 121 105 101 99 98 96 95 96 90 84 81 77 73 71 68 65 62 63 63 63 65 67
80 109 163 170 146 132 108 108 110 78 75 73 79 97 126 130 124 123 124 121 124 136 143 138 131 126 120 115 106 100 98 92 87 85 84 86 85 81 84 73 70 64 60 59 59 59 61 63 67
108 140 152 122 127 123 120 108 94 107 102 149 144 142 138 131 134 139 141 138 149 151 137 142 140 132 125 110 116 105 90 88 85 82 80 83 80 71 67 64 57 54 54 52 50 51 57 64 72
106 127 132 134 118 108 112 104 88 127 174 174 155 148 146 144 154 157 154 153 140 132 143 143 137 130 130 120 114 101 90 89 92 93 93 97 86 72 65 58 50 49 50 52 54 54 59 65 74
103 120 112 123 115 118 111 120 126 149 162 143 137 136 147 154 165 168 163 152 133 132 141 144 133 130 129 121 107 95 95 98 105 105 104 109 105 91 80 56 50 48 53 56 54 59 63 66 70
144 120 102 110 106 108 115 121 115 195 155 139 143 150 156 158 166 161 155 148 146 147 145 138 132 137 129 121 113 109 100 100 93 102 110 113 113 113 99 78 62 55 61 65 73 75 79 75 79
105 87 50 100 139 153 105 49 198 199 154 149 159 164 157 159 158 160 161 159 158 156 145 139 141 131 129 131 126 110 104 95 91 100 100 105 113 119 112 88 54 53 71 70 67 64 72 75 76
59 69 131 260 170 172 121 190 249 204 149 158 166 159 157 161 153 164 161 156 155 147 145 144 135 129 134 136 130 107 98 95 93 92 94 105 109 113 104 85 58 67 81 76 69 61 62 64 70
34 137 199 265 223 152 130 197 257 200 157 167 169 160 156 143 125 147 154 155 153 149 144 136 131 134 145 139 126 107 96 92 91 91 86 95 101 105 105 89 76 82 77 66 79 72 84 76 65
211 189 191 200 237 134 142 220 251 234 158 169 167 163 157 153 174 160 143 137 141 143 138 130 126 137 140 128 104 85 78 68 65 77 81 86 91 99 103 93 70 86 81 60 69 87 76 90 79
169 149 188 223 210 159 184 208 245 248 160 167 170 168 164 177 178 128 127 126 120 125 130 134 129 137 127 117 121 118 119 102 56 53 75 87 94 102 103 80 69 73 87 88 85 91 86 61 71
138 131 222 290 265 156 156 239 265 251 184 176 171 177 180 172 122 110 106 108 122 137 138 135 141 142 147 142 145 153 146 159 149 36 47 76 90 102 101 99 88 79 85 70 64 91 90 66 80
117 155 210 240 350 20 100 332 306 298 16 120 153 161 166 167 163 151 125 120 128 135 152 152 147 145 141 137 118 92 72 48 31 19 15 23 77 90 93 97 100 88 88 101 98 110 112 127 18
223 220 205 203 79 278 143 252 285 260 278 217 189 154 161 164 156 152 145 142 146 158 153 150 153 142 142 136 127 128 131 138 226 234 7 4 47 77 87 94 97 100 91 97 101 100 116 132 141
212 217 209 215 171 324 287 168 282 269 243 234 203 179 169 158 154 155 157 162 159 152 147 147 142 143 133 138 139 135 124 152 146 111 80 13 7 35 62 88 94 96 98 103 97 82 96 128 145
121 45 31 41 72 297 245 176 276 238 223 209 200 186 174 155 149 157 165 148 143 133 130 135 131 141 144 142 143 145 148 148 126 120 116 7 3 15 27 79 84 92 97 107 116 104 106 127 136
74 76 32 1 2 259 250 160 247 255 225 187 184 179 173 155 144 145 149 147 145 140 131 122 131 139 155 152 161 166 167 164 163 168 174 170 157 253 258 114 112 104 96 122 115 109 109 133 150
161 135 152 197 236 281 338 221 265 294 200 158 158 158 152 158 158 158 160 156 150 150 146 135 136 161 167 163 179 179 171 171 181 184 178 185 205 221 223 198 176 139 115 117 115 112 122 101 147
132 174 176 153 240 278 290 291 319 18 65 112 122 126 160 175 169 163 157 144 147 153 160 159 153 138 172 175 163 161 164 168 180 191 185 193 205 220 217 214 199 195 171 158 143 133 134 110 139
155 156 94 117 182 269 292 274 252 255 217 187 170 176 184 179 172 160 159 158 161 168 160 139 137 146 158 153 153 154 176 183 179 174 192 212 223 218 212 236 234 215 199 188 167 168 174 120 319
154 111 117 133 160 171 259 271 239 214 207 197 203 201 188 180 177 172 170 167 154 140 133 134 141 139 140 147 131 113 203 194 180 183 211 216 218 213 205 224 230 220 220 205 175 197 183 163 214
174 182 151 162 232 182 188 263 286 231 216 197 204 208 197 179 175 165 158 144 123 139 154 161 169 167 180 173 150 137 212 145 187 216 224 210 211 223 218 214 217 225 227 209 192 217 217 200 211
Height
1508 1508 1507 1508 1513 1527 1532 1528 1522 1520 1520 1521 1519 1520 1524 1528 1532 1538 1534 1532 1532 1531 1530 1529 1528 1526 1525 1524 1523 1522 1521 1520 1519 1519 1518 1518 1517 1517 1517 1516 1516 1515 1514 1513 1512 1512 1511 1509 1508
1509 1508 1509 1510 1523 1539 1537 1527 1523 1521 1521 1521 1522 1524 1525 1529 1531 1532 1532 1533 1533 1532 1531 1530 1529 1527 1526 1525 1523 1522 1521 1521 1520 1520 1519 1519 1518 1518 1517 1517 1517 1516 1515 1514 1514 1513 1512 1511 1509
1509 1509 1511 1515 1528 1537 1534 1526 1523 1521 1521 1521 1524 1526 1528 1531 1532 1532 1533 1534 1533 1533 1532 1531 1530 1528 1527 1526 1524 1523 1522 1522 1521 1521 1520 1520 1520 1519 1519 1518 1518 1517 1516 1516 1515 1514 1513 1512 1511
1509 1511 1513 1522 1529 1527 1525 1523 1521 1522 1523 1523 1525 1529 1531 1533 1533 1533 1534 1534 1534 1533 1533 1532 1531 1530 1528 1527 1526 1524 1523 1522 1522 1522 1522 1521 1521 1521 1520 1519 1519 1518 1517 1517 1516 1515 1514 1513 1512
1510 1512 1521 1530 1529 1525 1522 1521 1521 1522 1524 1526 1526 1531 1533 1535 1534 1535 1535 1535 1535 1534 1534 1533 1532 1531 1530 1529 1527 1525 1523 1523 1523 1523 1523 1523 1523 1522 1522 1521 1520 1520 1519 1518 1517 1516 1515 1514 1513
1512 1515 1531 1537 1530 1524 1523 1522 1522 1525 1527 1528 1529 1532 1535 1536 1535 1536 1536 1536 1536 1535 1535 1534 1533 1532 1531 1530 1528 1526 1524 1524 1525 1525 1525 1525 1525 1524 1524 1523 1522 1521 1520 1520 1519 1518 1517 1516 1515
1515 1522 1531 1532 1531 1528 1525 1523 1524 1526 1527 1529 1530 1533 1536 1537 1536 1537 1537 1537 1537 1537 1536 1535 1535 1534 1533 1532 1531 1529 1528 1527 1527 1527 1527 1527 1526 1526 1525 1525 1524 1523 1522 1521 1520 1520 1519 1518 1517
1514 1522 1530 1532 1532 1530 1525 1525 1526 1526 1528 1530 1530 1532 1535 1537 1537 1538 1538 1538 1538 1538 1537 1536 1536 1535 1535 1534 1533 1532 1531 1530 1529 1529 1529 1528 1528 1527 1527 1526 1526 1525 1524 1523 1522 1521 1520 1520 1519
1516 1527 1535 1531 1531 1529 1525 1526 1528 1528 1529 1530 1531 1532 1534 1536 1537 1538 1539 1539 1539 1539 1538 1538 1537 1537 1536 1535 1534 1534 1533 1532 1531 1531 1531 1530 1529 1529 1529 1528 1528 1527 1526 1525 1524 1524 1523 1522 1521
1518 1531 1529 1525 1525 1526 1526 1527 1528 1529 1530 1532 1532 1534 1535 1537 1538 1538 1539 1539 1539 1539 1539 1539 1538 1538 1537 1537 1536 1535 1534 1534 1533 1532 1532 1531 1531 1531 1530 1530 1529 1529 1528 1527 1526 1526 1525 1524 1523
1519 1525 1524 1524 1524 1525 1526 1528 1529 1530 1533 1533 1533 1534 1536 1537 1538 1538 1539 1539 1539 1539 1540 1540 1539 1539 1538 1538 1537 1536 1536 1535 1534 1534 1533 1533 1532 1532 1532 1531 1531 1530 1529 1529 1528 1527 1527 1526 1525
1521 1522 1522 1524 1524 1526 1527 1528 1529 1530 1532 1532 1533 1534 1536 1537 1538 1538 1539 1539 1540 1540 1540 1540 1540 1540 1540 1539 1538 1537 1537 1536 1535 1535 1534 1534 1534 1533 1533 1533 1532 1532 1531 1530 1530 1529 1528 1528 1527
1522 1523 1523 1524 1525 1526 1527 1529 1530 1531 1532 1532 1534 1535 1536 1537 1538 1539 1539 1539 1540 1540 1540 1540 1541 1540 1540 1540 1539 1538 1537 1537 1536 1535 1535 1535 1535 1534 1534 1534 1533 1533 1532 1532 1531 1530 1530 1529 1528
1523 1523 1524 1525 1526 1527 1528 1530 1531 1532 1532 1533 1534 1535 1536 1536 1538 1538 1539 1539 1539 1540 1540 1541 1541 1541 1540 1540 1539 1539 1538 1537 1537 1536 1536 1536 1535 1535 1534 1534 1534 1534 1533 1533 1532 1532 1531 1530 1530
1523 1525 1527 1527 1527 1528 1529 1533 1531 1531 1531 1532 1534 1535 1536 1536 1537 1538 1538 1538 1539 1540 1540 1541 1541 1541 1541 1540 1540 1539 1539 1538 1537 1537 1536 1536 1536 1535 1535 1535 1534 1534 1534 1534 1533 1533 1532 1531 1531
1525 1531 1536 1529 1527 1528 1533 1540 1531 1530 1531 1532 1533 1534 1535 1536 1536 1537 1538 1538 1539 1539 1540 1540 1541 1541 1541 1541 1540 1540 1539 1539 1538 1537 1537 1536 1536 1535 1535 1535 1535 1535 1534 1534 1534 1533 1533 1532 1532
1533 1540 1538 1532 1527 1527 1532 1536 1531 1530 1531 1531 1533 1534 1534 1535 1536 1537 1537 1538 1538 1539 1539 1540 1540 1541 1541 1541 1540 1540 1540 1539 1538 1538 1537 1536 1536 1535 1535 1535 1535 1535 1535 1534 1534 1533 1533 1533 1532
1539 1538 1536 1535 1529 1528 1532 1534 1531 1530 1530 1531 1532 1533 1534 1534 1535 1536 1536 1537 1538 1539 1539 1540 1540 1540 1541 1540 1540 1540 1540 1539 1539 1538 1537 1537 1536 1535 1535 1535 1535 1535 1534 1534 1534 1533 1533 1533 1533
1529 1533 1535 1532 1526 1530 1533 1534 1531 1530 1530 1530 1531 1532 1533 1534 1535 1535 1536 1536 1537 1538 1539 1539 1539 1540 1540 1540 1539 1539 1539 1539 1539 1538 1538 1537 1537 1536 1536 1535 1535 1534 1534 1534 1534 1533 1533 1533 1533
1528 1533 1535 1530 1526 1529 1534 1535 1531 1529 1529 1530 1530 1531 1531 1532 1533 1534 1535 1536 1536 1537 1538 1538 1539 1539 1539 1539 1539 1539 1539 1539 1539 1538 1538 1538 1537 1536 1536 1535 1534 1534 1534 1534 1533 1533 1533 1532 1532
1529 1532 1533 1533 1529 1529 1533 1539 1534 1530 1529 1529 1529 1529 1530 1531 1532 1533 1534 1535 1535 1536 1537 1538 1538 1539 1539 1539 1539 1539 1538 1538 1538 1538 1537 1537 1537 1536 1535 1535 1534 1534 1533 1533 1533 1532 1532 1532 1532
1532 1525 1526 1529 1536 1542 1538 1552 1538 1532 1530 1528 1529 1528 1529 1530 1531 1532 1533 1534 1534 1535 1536 1537 1537 1537 1538 1538 1537 1537 1537 1537 1537 1537 1536 1536 1536 1536 1535 1535 1534 1533 1533 1532 1532 1532 1531 1531 1531
1525 1521 1524 1527 1534 1541 1540 1549 1544 1533 1533 1530 1528 1528 1528 1529 1530 1531 1532 1533 1533 1534 1535 1535 1536 1536 1536 1536 1536 1536 1536 1536 1536 1536 1536 1536 1535 1535 1534 1534 1533 1533 1532 1532 1531 1531 1531 1530 1530
1520 1525 1528 1534 1541 1551 1542 1547 1547 1536 1530 1528 1527 1527 1527 1528 1528 1529 1530 1531 1532 1533 1533 1534 1534 1534 1534 1535 1535 1534 1534 1534 1534 1534 1534 1534 1534 1534 1533 1533 1532 1532 1531 1531 1530 1530 1530 1529 1529
1525 1539 1553 1555 1558 1553 1538 1543 1542 1527 1523 1523 1524 1525 1526 1527 1527 1528 1528 1529 1530 1531 1531 1532 1532 1532 1533 1533 1533 1533 1533 1533 1533 1533 1533 1532 1532 1532 1531 1531 1531 1530 1530 1530 1529 1529 1528 1528 1528
1527 1536 1555 1562 1561 1553 1540 1542 1535 1523 1521 1521 1522 1523 1524 1525 1526 1526 1527 1527 1528 1529 1530 1530 1530 1530 1531 1531 1531 1531 1531 1531 1531 1531 1531 1530 1530 1530 1530 1529 1529 1529 1528 1528 1528 1527 1527 1526 1526
1528 1534 1535 1547 1548 1553 1547 1539 1530 1525 1523 1523 1523 1523 1524 1524 1524 1524 1525 1525 1526 1527 1527 1528 1528 1528 1529 1529 1529 1529 1529 1529 1528 1529 1528 1528 1528 1528 1527 1527 1527 1526 1526 1526 1526 1525 1525 1525 1524
1522 1527 1540 1547 1555 1559 1550 1544 1541 1530 1526 1524 1523 1523 1522 1523 1523 1523 1524 1524 1524 1525 1525 1526 1526 1526 1526 1526 1526 1526 1526 1526 1526 1526 1526 1526 1525 1525 1524 1524 1524 1524 1524 1523 1523 1523 1523 1523 1522
1525 1529 1535 1545 1548 1557 1558 1549 1527 1525 1523 1523 1522 1521 1521 1521 1522 1522 1523 1523 1523 1523 1523 1524 1524 1524 1524 1523 1523 1523 1523 1523 1523 1523 1523 1522 1522 1522 1521 1521 1521 1521 1520 1520 1520 1520 1520 1520 1520
1521 1525 1534 1545 1547 1549 1555 1548 1522 1521 1520 1520 1521 1520 1520 1521 1521 1521 1521 1521 1521 1521 1522 1522 1522 1522 1521 1521 1521 1521 1521 1521 1520 1520 1520 1520 1519 1519 1518 1518 1518 1517 1517 1517 1517 1517 1517 1517 1516